Theta_e
301 301 301 300 300 300 301 301 300 300 300 300 299 298 296 295 292 291 291 294 294 296 297 295 298 300 299 300 302 302 301 302 302 302 302 302 303 303 302 301 301 301 301 301 301 300 301 301 301 302 303 304 303 303 303 302 302 302 302 304 305 305 304 304 303 304 305 308 310 310 311 314 322 322
301 300 300 300 298 300 300 299 300 300 300 299 299 298 298 297 293 292 291 292 296 296 298 298 296 298 299 300 301 301 301 302 302 302 302 302 302 301 301 301 300 300 300 300 299 299 299 300 301 302 302 302 302 301 301 301 301 301 303 304 304 302 302 302 303 304 304 306 308 310 311 312 316 321
300 300 299 299 298 300 300 300 300 301 300 299 299 298 299 299 298 295 294 291 295 298 296 297 299 298 300 299 300 301 301 301 301 301 302 301 302 302 302 302 301 300 300 300 300 301 300 299 300 301 301 301 301 301 302 301 301 301 302 301 301 301 301 302 302 304 305 307 308 311 311 311 312 319
301 299 298 298 298 299 299 299 300 299 300 301 299 299 299 299 299 298 295 293 293 298 298 299 300 299 299 300 299 299 299 300 301 301 301 301 302 301 302 301 301 301 300 300 299 300 299 299 299 300 301 301 302 301 301 300 301 301 300 300 300 300 301 301 302 304 305 305 306 309 310 310 310 311
300 299 298 298 298 300 299 299 299 299 299 300 299 300 298 298 299 298 296 294 294 297 300 298 298 299 300 298 299 298 299 299 300 301 301 302 301 301 301 301 301 300 300 299 299 299 298 298 300 301 300 300 301 300 300 300 300 300 300 299 300 300 300 301 301 301 303 304 305 307 307 307 307 309
300 300 298 297 298 300 299 299 298 298 299 299 298 298 298 297 298 299 297 295 294 293 297 297 299 298 299 296 298 298 298 298 300 299 300 301 301 300 301 301 301 300 300 299 299 299 298 298 299 299 298 298 298 299 299 299 298 299 299 297 297 299 300 300 301 301 302 303 303 304 305 305 306 307
300 299 298 298 299 300 299 299 300 300 300 300 299 298 299 298 299 299 299 296 294 293 294 297 296 297 297 297 297 298 299 299 299 298 299 299 300 301 301 300 301 299 299 298 298 298 298 298 298 298 298 298 298 298 298 298 298 298 298 297 297 299 300 300 300 300 302 302 302 303 303 304 305 306
299 299 298 298 299 300 299 299 299 299 300 299 299 299 299 299 299 299 299 299 296 295 293 296 295 296 296 297 298 298 299 298 299 299 299 300 300 300 300 300 301 300 300 299 299 299 299 299 299 298 298 298 298 298 298 298 298 298 297 298 298 298 299 299 299 299 300 300 300 301 301 302 304 306
300 299 298 298 299 299 299 299 299 300 300 300 300 299 298 298 298 299 298 298 298 296 294 295 297 298 297 298 298 299 297 298 298 299 299 299 299 299 300 300 301 300 300 299 299 298 298 298 298 298 298 298 298 298 298 298 298 298 298 298 298 298 298 299 299 299 299 299 300 300 302 302 303 306
301 300 299 299 300 299 299 299 300 301 301 300 300 299 298 298 298 298 298 298 297 297 295 295 295 297 296 296 298 298 298 297 296 297 298 299 299 299 299 299 299 300 299 299 298 298 298 298 298 298 298 298 297 297 297 297 298 297 298 298 298 298 298 298 299 299 298 299 299 300 300 301 302 304
301 300 300 300 301 300 300 300 300 300 300 300 300 299 299 299 298 297 297 297 296 296 295 295 296 295 297 297 296 297 299 298 297 296 295 295 298 298 297 296 298 299 298 298 297 297 298 299 299 298 298 297 298 298 297 298 298 298 298 297 296 296 296 297 297 298 298 299 299 299 299 298 299 301
301 301 301 301 301 301 300 300 300 300 299 300 299 299 299 299 298 296 296 296 295 294 294 294 294 295 295 296 298 298 298 296 296 297 296 293 294 295 297 297 296 297 297 296 297 297 298 298 298 297 298 298 298 298 298 299 299 299 298 297 297 297 297 296 296 297 298 298 298 298 297 298 299 300
301 301 301 301 301 301 299 298 298 296 296 299 298 299 299 298 297 296 296 295 294 294 294 294 295 294 294 295 295 295 295 294 294 296 296 294 295 295 295 295 297 297 296 296 296 296 297 297 297 297 297 298 299 298 299 299 299 299 297 297 297 297 297 297 298 298 298 298 299 298 298 298 299 298
301 301 301 302 301 300 298 299 296 294 295 295 297 298 299 297 296 295 294 294 294 294 293 293 293 293 293 294 295 295 296 296 297 295 295 293 294 294 293 294 297 298 296 295 295 296 298 297 296 296 296 298 298 298 298 298 298 297 296 296 296 296 296 297 297 298 298 298 298 298 298 298 298 298
301 302 301 302 300 300 300 300 296 295 294 293 293 293 294 295 296 295 293 293 293 292 293 293 294 293 293 294 296 296 295 296 295 295 295 294 293 292 291 289 293 298 297 295 293 293 297 297 295 295 296 297 298 298 298 297 297 297 296 296 296 296 296 296 296 296 296 296 297 297 297 297 297 298
301 301 301 301 301 301 300 300 301 300 296 294 293 293 293 293 292 293 294 293 292 293 293 293 294 294 294 294 296 295 295 295 295 295 295 294 293 292 291 290 290 294 297 293 292 292 296 297 295 294 296 297 298 298 297 296 296 296 296 296 296 296 296 296 296 296 296 296 296 296 296 296 296 296
301 301 301 300 300 302 299 299 301 301 301 297 295 295 295 295 294 291 290 291 294 295 294 294 294 295 295 294 295 297 296 297 294 294 293 294 294 293 292 292 291 293 296 293 291 290 293 295 294 293 296 297 297 297 296 296 296 296 296 296 295 295 295 296 296 296 296 296 297 297 297 297 297 297
302 301 300 299 298 300 302 301 300 300 301 300 300 299 298 297 297 294 293 292 292 294 295 295 294 296 297 295 296 297 297 295 294 293 292 294 293 293 292 293 293 294 296 293 292 290 291 293 293 292 294 296 296 297 296 295 295 295 295 295 295 295 295 295 295 296 296 296 296 296 297 297 297 297
302 301 300 299 299 300 301 300 296 298 300 300 300 298 297 297 297 298 297 296 295 295 296 296 296 296 297 297 296 297 297 296 296 296 295 295 295 294 295 293 294 294 296 295 292 287 291 294 291 291 293 294 295 297 296 295 295 295 295 295 295 295 295 294 294 295 295 295 295 295 295 296 296 296
301 300 300 300 300 301 301 296 290 292 296 300 298 296 296 296 297 298 297 293 293 295 296 296 296 296 296 293 295 295 295 296 297 296 297 297 296 293 290 289 291 292 295 296 293 289 289 292 290 290 292 293 294 295 296 295 296 295 295 295 295 295 294 294 294 294 294 295 295 295 295 295 295 295
299 300 301 301 300 301 301 294 289 290 292 299 297 296 296 296 296 296 297 294 292 292 291 291 290 290 290 290 291 291 291 295 296 296 295 293 293 291 288 288 289 290 293 294 293 290 288 291 290 289 290 291 292 293 295 297 296 296 295 295 295 295 294 294 294 294 294 294 294 294 295 295 295 295
298 299 296 298 301 301 301 291 289 289 295 298 297 296 295 295 295 296 296 296 297 293 293 292 292 291 291 291 292 293 293 293 295 296 292 294 293 290 289 287 288 290 292 293 294 288 288 290 291 289 290 291 292 293 295 296 297 296 296 296 295 294 294 294 293 294 294 295 294 294 294 295 296 300
298 299 297 295 296 296 295 289 289 289 293 299 298 297 296 294 294 295 296 295 295 295 296 296 297 296 296 299 299 299 294 294 296 298 296 295 293 290 289 289 288 287 290 293 294 286 287 288 289 288 286 286 289 293 294 295 296 297 298 299 299 297 295 294 293 293 294 295 295 295 295 295 295 301
298 299 301 298 290 289 289 289 289 289 289 296 298 298 296 295 293 295 295 296 295 295 295 296 296 297 298 298 299 299 298 298 298 298 297 297 295 292 290 289 288 285 287 292 294 287 287 288 287 289 287 283 283 288 292 294 296 297 298 298 299 298 298 296 295 294 294 294 294 295 295 296 296 302
297 297 298 300 294 289 289 289 289 289 289 290 296 298 297 296 295 292 295 295 294 296 296 295 295 295 295 296 297 297 297 297 297 297 298 297 297 294 292 288 287 287 290 293 292 288 285 287 286 288 287 287 286 287 291 293 296 297 298 298 299 301 303 303 302 304 297 294 294 295 295 295 296 299
298 298 299 300 295 289 289 289 289 289 289 289 296 298 291 288 288 293 295 296 296 295 295 294 293 294 294 294 295 295 296 296 297 297 297 298 297 297 296 292 288 286 287 292 291 289 286 285 286 286 286 286 286 288 288 291 295 297 298 299 299 300 302 303 304 305 306 306 304 298 298 295 296 295
298 299 300 300 294 289 289 289 289 289 288 290 297 290 288 288 287 291 296 296 296 295 295 294 293 292 293 293 293 294 294 295 296 296 298 298 298 297 297 295 295 293 292 293 292 289 287 286 288 286 285 286 285 287 288 288 291 295 295 297 299 301 303 303 302 303 306 307 308 298 296 295 295 295
298 299 300 298 289 288 289 289 289 289 289 293 290 288 288 287 290 296 296 295 295 294 293 293 292 292 292 292 293 294 295 296 296 297 297 297 298 297 296 295 295 295 295 294 291 288 287 287 287 288 286 285 284 284 284 289 290 292 292 295 298 302 303 302 302 304 305 307 308 307 306 304 303 300
299 294 289 288 289 289 288 288 288 290 290 288 288 288 287 291 297 296 295 295 295 294 293 292 293 292 292 293 294 295 296 297 298 297 297 298 298 298 297 297 296 296 295 295 292 288 288 287 286 287 287 287 285 285 286 286 288 289 291 292 295 299 301 302 304 305 306 308 307 307 305 305 305 304
288 288 288 287 288 290 292 298 300 300 300 291 288 287 290 299 296 296 295 295 294 293 293 292 292 292 293 293 295 296 297 296 295 295 295 295 296 296 295 295 295 296 295 295 294 291 289 289 287 286 286 287 287 285 286 286 286 289 291 291 293 299 302 303 304 305 307 306 307 307 307 308 307 306
297 297 294 296 291 290 288 288 289 290 292 296 298 299 298 298 297 296 296 295 294 293 293 293 293 294 294 295 294 294 294 294 295 296 294 295 295 295 295 294 293 293 294 295 295 293 292 291 290 287 285 286 286 286 286 287 286 287 289 291 292 291 294 299 305 306 307 307 307 306 307 308 307 305
298 298 294 294 298 300 302 301 301 301 302 299 298 299 298 298 297 295 293 293 296 296 295 294 294 294 294 293 293 293 293 293 294 295 294 294 295 295 294 292 291 293 293 294 294 294 292 293 292 290 287 285 284 285 286 286 286 286 287 289 291 294 295 294 299 304 305 305 304 305 306 307 306 306
298 298 298 298 298 298 293 298 299 299 299 299 299 300 300 298 298 297 296 296 295 295 294 294 294 293 293 293 293 292 293 293 293 295 294 295 295 295 294 292 292 292 291 292 292 292 292 292 293 292 290 287 286 286 285 284 285 286 286 287 289 290 292 294 296 301 306 304 303 304 303 305 307 307
294 296 294 296 295 297 297 296 295 296 297 297 297 298 294 297 298 296 296 296 295 294 293 294 292 293 292 292 292 292 291 292 293 294 292 294 295 294 293 291 291 293 292 292 291 291 291 291 292 293 293 291 287 287 287 285 284 285 286 287 287 287 290 293 295 297 299 303 304 302 302 301 302 304
292 292 293 294 295 296 297 295 295 295 296 294 294 297 297 297 294 292 297 297 294 293 292 292 293 292 293 292 292 291 291 291 292 293 293 294 295 294 293 292 292 293 293 292 291 292 291 291 290 289 290 290 289 290 292 290 285 285 286 287 287 287 289 292 294 294 295 295 300 299 298 297 297 296
292 294 293 294 295 296 296 294 296 296 296 296 296 296 295 295 294 294 295 295 296 293 293 292 291 292 292 292 291 291 291 290 292 292 291 292 293 293 294 293 293 293 293 292 292 293 292 291 290 288 286 287 286 284 286 291 290 287 284 284 286 286 288 291 294 294 293 293 293 293 290 291 292 294
292 294 296 296 297 297 295 297 297 297 298 297 297 297 296 296 296 298 299 295 296 293 293 292 293 292 292 291 291 290 290 291 290 290 291 292 292 293 292 291 291 292 293 293 294 293 293 291 290 288 287 285 284 283 285 288 290 291 288 285 285 287 286 289 291 291 292 293 292 292 291 290 290 293
293 295 296 296 296 297 297 297 296 296 297 297 297 297 298 298 299 299 300 298 296 294 294 294 293 292 292 291 291 291 291 291 291 290 290 290 290 291 291 291 292 292 292 293 293 293 293 292 290 289 287 285 284 284 284 287 288 289 290 288 285 285 287 287 287 288 290 293 293 293 293 289 290 292
295 295 296 296 297 298 297 297 296 296 298 299 298 297 298 298 299 298 298 296 297 295 296 294 294 292 291 293 291 291 291 291 290 290 289 290 290 290 291 291 291 292 293 291 292 293 293 291 290 289 289 287 285 285 286 285 286 289 290 290 288 286 286 286 286 288 289 289 292 295 294 296 295 291
295 296 296 297 297 298 298 299 298 299 298 298 298 299 298 296 297 297 297 295 296 294 293 294 292 292 292 292 291 292 292 292 291 290 290 290 289 289 290 290 292 291 291 290 290 291 291 291 290 290 290 291 291 291 290 290 290 291 291 290 290 288 287 286 285 286 287 289 293 292 292 293 290 291
295 296 297 297 298 298 298 298 299 299 299 299 299 296 297 298 298 298 297 296 293 294 294 294 293 292 292 292 291 291 290 291 291 291 290 290 289 289 288 288 291 292 291 290 290 290 291 292 293 288 292 295 294 294 290 288 287 288 289 290 290 290 289 289 287 286 285 288 291 291 292 291 289 288
297 297 298 299 299 300 300 299 300 299 299 299 299 298 299 298 295 293 293 291 293 292 293 293 294 293 293 292 292 291 291 290 291 290 290 290 289 289 288 289 290 291 291 290 290 291 294 296 296 296 296 293 292 289 287 287 287 288 289 290 290 291 290 289 289 288 287 287 286 286 287 289 290 286
297 298 298 299 300 300 299 299 299 299 299 299 299 299 297 296 295 296 296 295 294 294 295 295 295 294 294 294 293 292 291 291 291 290 290 290 289 289 289 289 289 290 292 292 293 293 293 296 295 294 293 292 291 290 288 288 289 289 289 289 289 291 291 290 289 288 288 288 287 286 286 286 285 283
298 299 299 299 299 300 300 299 299 299 299 299 298 297 296 295 295 296 296 296 295 295 295 295 295 294 294 294 293 292 293 292 291 290 290 290 290 290 289 289 289 290 291 292 292 293 293 293 294 294 292 291 291 290 288 288 289 289 289 289 290 290 290 290 290 289 289 288 288 288 288 287 286 286
298 299 300 300 299 300 299 300 299 300 299 298 296 297 295 295 294 295 295 294 294 294 293 294 294 294 294 294 293 292 293 290 291 292 292 292 291 290 290 290 289 289 290 291 291 292 293 293 293 293 292 291 292 291 290 290 289 289 289 289 289 290 291 290 289 288 288 288 288 288 288 288 287 287
Wind_Speed
9 8 9 8 7 7 6 6 6 6 6 6 6 7 8 7 7 8 10 10 10 11 12 11 11 12 13 12 11 11 12 13 15 13 13 13 12 14 17 18 20 20 20 20 20 20 20 20 21 22 23 24 24 24 24 23 23 22 23 22 22 21 20 19 20 18 18 19 19 18 14 17 22 23
8 8 8 8 8 7 6 6 6 6 6 6 6 6 5 5 6 6 7 10 8 9 10 10 11 12 13 12 11 11 12 14 15 13 13 13 13 18 19 19 19 18 19 19 19 19 20 21 22 24 25 25 25 24 24 25 24 24 23 23 22 21 20 19 21 20 18 18 18 18 16 16 15 23
8 9 9 7 7 6 6 5 5 5 6 6 6 6 4 3 3 4 5 8 8 8 10 10 11 12 13 13 11 10 10 12 14 14 13 14 17 22 18 17 17 18 18 18 19 20 20 20 20 22 23 25 26 26 26 26 24 24 23 22 22 22 21 21 22 21 19 19 19 18 17 15 17 17
8 9 9 8 7 5 6 6 6 6 6 5 5 5 5 3 2 3 5 7 11 10 9 11 11 13 13 13 12 12 11 10 15 13 13 15 19 14 13 16 17 17 18 18 18 19 20 20 21 21 23 25 26 27 26 24 24 23 21 19 20 20 21 21 22 22 20 20 19 18 17 16 15 17
8 9 9 9 7 6 6 6 6 7 7 6 5 5 5 6 5 4 6 8 11 9 8 10 11 12 12 12 12 14 12 13 13 13 14 15 14 14 13 14 18 17 17 17 18 20 20 20 22 24 24 24 25 26 23 21 21 19 18 17 19 20 21 22 22 22 21 20 19 18 17 17 16 15
7 8 9 8 7 6 7 6 7 7 7 6 6 7 6 6 7 6 6 9 10 13 12 11 11 10 11 12 11 12 15 15 14 15 14 13 14 14 14 14 15 18 18 18 19 20 21 22 22 22 22 22 22 22 22 21 20 19 19 16 16 17 19 22 23 23 21 20 19 17 16 16 16 16
8 9 8 8 6 4 6 6 6 6 7 6 7 7 6 7 7 7 7 9 11 13 13 12 12 11 11 11 14 14 12 14 14 16 15 14 13 12 15 15 14 18 18 18 20 22 22 22 22 22 22 22 22 22 22 21 20 20 19 17 16 16 19 20 22 24 23 22 20 19 16 15 17 16
8 8 8 7 6 5 6 6 6 6 6 7 6 7 7 7 8 8 8 9 9 11 13 12 12 11 11 11 12 12 13 13 14 14 14 15 14 15 15 16 17 18 21 21 20 19 19 19 20 21 21 22 22 22 22 21 21 20 20 19 18 18 19 20 20 22 23 23 21 20 17 16 15 18
7 8 7 6 6 6 6 6 7 6 7 6 6 7 8 8 8 8 9 9 9 11 13 13 10 11 10 10 12 13 15 16 15 13 14 14 15 15 16 16 17 19 19 19 18 19 19 20 20 20 20 20 21 21 21 21 21 21 20 20 18 18 19 21 22 24 24 22 21 20 20 17 16 18
6 6 7 6 5 6 6 6 6 6 7 6 7 8 8 9 9 9 10 9 10 10 11 12 13 10 11 12 11 12 15 16 17 16 14 15 15 17 19 17 15 15 15 15 16 18 19 20 21 22 21 21 21 21 22 22 22 22 22 21 20 19 19 20 21 23 22 22 22 21 20 18 17 17
5 5 6 5 5 5 6 7 7 7 7 6 8 8 8 8 10 10 10 10 11 10 11 11 10 12 11 11 13 15 15 14 14 17 19 16 16 17 19 20 16 15 17 18 17 18 19 22 21 21 21 21 22 22 22 23 22 22 22 20 19 18 18 19 20 23 24 23 22 20 18 16 14 15
3 4 4 5 5 5 6 6 6 7 6 6 8 8 8 9 10 11 10 10 10 10 10 10 12 11 12 12 12 13 14 15 15 13 15 19 22 20 17 16 20 19 16 17 17 18 19 19 20 20 20 20 19 19 19 20 20 20 19 18 18 17 18 18 19 21 22 22 21 20 18 17 15 15
3 2 3 3 5 5 5 4 4 4 4 5 7 8 8 9 10 10 10 10 10 10 10 11 10 11 12 13 14 16 15 16 17 17 17 18 19 20 19 18 17 16 18 17 17 16 17 18 17 17 17 17 20 19 18 18 19 19 18 19 18 17 17 17 18 20 20 21 20 19 18 17 16 15
3 2 1 2 3 1 3 2 4 5 6 5 5 5 6 8 9 10 10 10 10 10 11 11 12 13 14 14 15 15 15 16 17 18 17 20 22 20 19 15 14 17 17 18 19 20 17 16 18 17 17 16 16 15 14 13 14 13 11 12 12 14 14 15 17 18 19 19 19 18 18 17 16 15
2 2 1 1 2 2 2 2 2 4 6 7 8 8 8 7 6 8 9 9 10 10 11 11 12 12 15 16 15 15 16 15 17 17 17 18 18 19 22 23 20 12 18 20 19 20 18 17 18 18 16 16 15 14 14 14 13 13 13 14 15 17 17 17 17 18 19 19 18 17 17 17 17 16
2 1 1 1 2 3 4 4 4 4 4 6 8 9 10 11 10 4 5 8 9 10 10 11 12 13 14 15 15 16 17 17 17 17 17 17 20 22 22 21 21 20 20 20 20 19 17 16 17 17 16 15 14 15 15 16 16 17 17 18 18 18 18 17 17 18 19 19 18 17 17 17 17 15
2 1 0 1 2 2 1 3 4 5 5 4 5 6 9 9 9 10 8 6 7 9 10 11 12 12 14 15 15 16 17 17 17 18 17 18 19 19 21 21 23 24 22 19 17 18 16 15 15 17 16 15 16 16 16 16 14 14 15 16 17 18 18 18 18 18 19 20 19 18 17 18 17 16
3 2 0 1 3 4 3 3 5 5 6 6 7 8 9 10 11 10 9 9 8 8 8 10 12 13 13 13 15 17 17 17 18 18 19 20 21 22 21 23 22 20 18 15 15 16 16 15 16 17 16 16 16 17 18 17 18 18 18 18 18 18 18 18 17 18 18 20 19 17 17 17 17 16
3 2 1 1 3 3 3 3 6 6 6 6 6 8 9 10 9 8 8 9 9 9 8 9 11 12 13 13 15 16 15 16 15 15 19 21 20 19 21 19 17 17 15 17 15 16 17 17 16 17 17 15 16 16 18 18 17 17 17 18 18 19 19 18 17 17 18 19 19 17 16 16 16 15
3 2 1 1 2 2 2 5 4 5 5 5 8 9 10 10 9 7 6 6 8 9 9 10 10 11 13 16 15 16 16 16 15 16 16 15 17 20 19 19 18 16 17 17 15 14 18 16 15 17 15 15 15 15 15 18 17 17 17 18 18 18 18 18 17 17 18 19 19 18 16 16 16 14
2 1 1 1 2 2 2 4 5 5 5 5 8 9 10 9 9 9 9 8 9 10 13 14 15 16 17 18 19 20 22 16 16 15 15 16 18 21 20 21 19 21 19 14 13 14 17 17 16 17 16 15 15 16 16 14 15 13 11 13 14 15 16 17 17 17 18 19 19 17 16 15 15 13
2 1 1 2 1 2 3 5 5 5 4 5 7 9 11 10 10 10 10 10 9 11 12 14 14 15 16 17 18 18 18 20 17 14 16 18 18 18 18 18 19 18 16 16 16 15 16 17 16 16 16 15 13 13 13 13 12 13 12 13 15 15 15 16 17 17 18 19 18 17 16 15 14 11
2 3 3 3 1 3 4 6 4 4 3 5 6 8 9 10 11 10 11 11 11 11 11 10 11 10 11 11 12 13 17 18 17 14 15 15 16 18 18 18 20 18 16 16 17 15 15 18 15 14 13 16 13 6 10 12 12 11 10 10 10 12 15 16 16 16 18 18 18 17 16 16 14 10
3 2 2 6 7 3 4 5 5 4 2 4 6 7 7 9 11 11 11 10 10 11 10 11 11 11 11 11 12 12 14 15 15 15 14 15 14 15 16 15 15 13 15 15 18 16 15 13 15 12 11 12 14 15 15 14 11 10 10 9 8 9 11 14 14 18 16 17 18 17 17 16 15 10
2 1 1 1 4 4 6 6 7 6 6 4 5 6 7 8 9 10 10 11 12 10 10 10 10 10 10 10 11 12 13 13 14 14 14 14 14 14 12 13 15 14 13 14 19 14 12 14 14 13 11 10 11 14 14 13 11 9 8 8 8 8 7 7 7 9 16 18 17 17 17 17 18 14
2 1 2 2 4 5 6 7 7 7 7 7 5 6 6 10 10 8 9 9 9 9 9 10 10 10 11 11 12 12 13 13 15 15 14 15 15 13 9 10 13 16 16 16 21 15 15 11 13 14 13 13 15 12 13 12 10 9 8 8 8 9 7 6 5 7 7 8 9 13 13 17 16 18
1 1 2 2 1 6 7 7 7 7 8 7 5 6 9 10 11 11 7 9 9 10 10 10 11 11 12 12 13 13 13 13 15 14 14 15 16 14 10 8 8 9 11 12 14 14 11 10 13 15 14 14 14 14 10 11 11 10 10 8 8 8 7 6 6 6 7 8 8 14 14 14 17 17
1 2 2 4 7 8 8 8 7 8 7 6 9 10 9 11 10 7 8 8 10 9 10 11 12 11 11 11 12 12 12 13 14 14 15 16 17 16 14 11 9 8 10 10 11 12 12 12 11 14 15 13 14 13 13 11 10 10 11 10 10 8 6 6 6 6 7 8 9 8 8 9 9 11
1 3 6 9 9 8 8 9 9 8 9 9 8 8 9 9 6 8 8 9 9 10 11 11 11 11 11 11 11 13 13 13 12 12 13 14 14 15 14 11 8 7 8 10 9 10 11 11 11 11 12 12 13 13 11 11 10 10 10 11 9 8 7 6 6 6 7 8 9 8 8 10 10 11
5 7 8 10 10 8 5 4 4 5 5 6 9 10 9 5 7 6 8 8 9 9 10 11 11 11 10 11 11 12 12 12 12 13 14 15 15 16 15 15 13 10 8 9 9 8 9 12 12 12 10 9 11 14 13 13 12 10 9 10 11 7 5 6 7 7 7 8 7 8 8 9 10 10
4 4 5 4 4 6 7 8 8 8 8 7 5 4 5 6 5 6 6 7 8 7 9 10 10 10 10 10 11 12 12 13 13 12 13 14 15 16 15 13 13 14 13 11 10 10 11 10 10 11 12 10 11 14 12 10 11 12 10 9 9 9 8 8 3 2 5 6 7 7 7 7 8 9
2 4 5 6 4 3 4 3 4 4 5 5 5 5 6 6 6 6 8 8 5 7 8 9 10 10 11 11 11 11 12 13 13 13 13 13 15 15 15 13 14 16 16 14 13 12 10 10 11 9 7 9 10 14 12 9 13 13 11 10 9 7 8 11 7 2 4 6 6 7 7 6 6 6
3 4 5 4 4 3 3 5 6 6 6 7 7 5 5 7 7 7 8 8 8 8 8 9 10 10 11 10 10 11 12 13 13 13 13 12 13 14 14 14 13 15 18 17 15 15 13 10 12 8 5 6 5 9 15 17 16 12 12 14 11 9 10 12 10 7 4 7 7 8 7 6 5 5
3 5 3 4 3 4 5 4 5 5 6 7 7 8 6 6 6 7 7 7 8 7 7 8 8 10 9 10 11 11 11 12 12 13 14 12 13 14 15 15 15 15 14 13 17 17 15 14 12 11 4 1 4 5 13 13 15 13 12 11 12 12 11 10 13 13 9 5 7 9 8 8 7 5
3 3 3 3 3 3 4 3 4 4 4 4 4 6 5 6 5 4 7 7 7 6 6 6 7 7 9 9 10 10 10 11 11 13 13 12 12 13 14 16 16 15 15 17 17 17 18 18 18 17 14 11 6 2 9 16 15 17 13 11 12 12 12 12 12 13 13 13 9 9 8 8 7 8
3 3 3 3 3 4 4 3 5 4 5 4 5 4 5 5 5 4 5 5 6 5 6 6 6 7 8 9 8 9 9 8 11 12 12 12 12 12 12 13 14 15 15 15 14 17 17 18 18 18 17 17 16 14 14 17 20 16 13 13 12 12 11 10 10 10 12 12 11 8 7 6 7 8
4 3 5 5 5 4 4 6 5 5 6 5 5 5 5 5 5 7 6 4 5 5 6 5 5 6 6 7 9 7 8 9 9 10 10 12 12 12 11 13 13 14 15 15 14 16 17 17 17 17 16 15 17 16 15 11 17 21 18 14 12 10 11 9 10 9 10 10 10 9 7 6 7 7
4 5 5 5 5 5 5 5 5 5 5 5 5 6 6 6 7 6 5 5 5 4 5 5 6 6 7 6 7 8 8 8 8 9 9 11 11 11 10 11 11 14 14 15 14 13 15 17 17 17 16 16 15 15 16 14 15 21 25 21 15 14 14 14 12 10 9 7 8 8 6 7 8 8
6 6 6 6 6 5 5 5 5 5 6 5 5 6 6 7 7 7 6 6 6 4 5 5 6 5 6 8 6 7 8 8 9 9 10 10 11 11 10 11 10 12 13 13 13 13 13 16 16 15 15 15 15 14 14 13 15 13 16 26 19 15 15 12 12 14 14 13 11 5 6 3 3 10
7 6 6 6 6 5 6 5 5 5 5 5 5 5 5 4 7 6 7 6 5 4 4 5 5 6 5 6 6 7 8 10 8 8 9 9 9 10 10 10 9 11 11 12 13 13 13 12 13 14 13 13 11 9 8 5 7 9 12 18 28 24 19 16 16 14 15 15 11 8 8 8 9 9
6 6 7 6 6 6 6 6 6 5 5 5 6 6 6 6 6 7 5 5 4 4 5 5 4 4 4 4 4 5 7 8 8 8 9 8 8 8 10 11 10 11 11 12 12 13 13 12 13 11 10 10 11 7 7 13 16 16 16 16 18 22 25 25 19 16 13 14 13 9 9 9 8 9
6 6 7 6 6 6 5 6 6 5 5 5 5 5 5 5 4 6 5 5 5 4 4 4 4 4 4 4 4 4 5 6 7 8 7 8 9 9 10 10 10 10 9 11 11 11 12 12 12 11 12 10 11 15 17 15 15 15 14 14 12 15 18 22 26 26 20 16 13 13 10 7 6 10
6 7 7 7 6 6 5 6 6 5 6 5 5 5 3 4 4 4 4 4 4 4 4 4 4 4 4 4 4 4 5 5 6 7 8 7 7 8 9 9 8 8 8 8 9 8 9 12 12 11 10 10 11 12 14 15 14 14 13 14 14 13 10 16 20 23 27 29 25 18 12 8 6 8
7 7 7 6 6 6 5 5 6 5 5 5 3 4 3 4 4 5 4 5 4 4 4 5 5 4 4 4 4 4 4 4 5 6 7 7 7 7 7 8 8 8 8 9 8 9 9 10 10 10 11 11 10 10 10 11 12 11 10 11 12 13 14 11 11 15 18 23 26 25 26 23 19 14
8 7 6 6 6 5 5 5 5 5 5 4 3 3 3 4 4 5 5 4 4 4 4 5 5 4 4 4 3 4 4 5 5 5 5 6 7 7 7 7 8 8 9 9 9 9 9 9 10 9 10 11 10 9 7 8 10 10 11 11 12 13 12 12 13 14 14 13 17 21 21 22 22 21
Wind_Direction
83 81 79 80 81 77 73 69 63 56 51 48 45 39 37 20 8 356 337 338 338 338 346 336 334 336 333 332 330 326 323 321 322 319 316 313 307 307 304 299 294 290 289 289 290 289 287 288 288 291 297 299 301 300 301 301 300 299 299 298 296 297 297 297 298 296 296 298 295 304 309 303 217 201
85 83 81 81 81 75 72 70 59 53 47 44 41 40 37 28 15 355 332 318 324 322 326 331 327 331 328 328 323 318 313 313 314 313 309 308 306 300 295 293 287 284 285 285 284 283 283 283 286 291 293 296 296 296 296 297 297 298 296 294 295 294 292 292 290 291 292 290 293 293 304 311 274 208
88 87 85 84 83 81 76 69 62 53 43 37 36 32 23 28 5 336 320 311 318 325 319 322 322 322 322 318 312 307 307 309 309 307 306 304 301 299 296 290 287 284 283 281 280 284 283 282 284 282 287 289 291 293 295 295 295 295 293 293 291 289 289 287 287 288 286 289 288 290 293 298 306 249
90 87 84 78 79 79 75 64 53 47 39 29 23 19 6 359 318 295 305 303 307 323 314 312 313 320 318 311 311 315 313 308 303 307 305 304 302 302 303 297 289 287 282 281 281 281 282 283 282 281 283 287 292 294 293 292 290 288 288 285 282 281 280 282 282 283 286 286 288 287 288 296 299 304
90 87 86 84 77 73 64 55 49 38 27 19 11 6 359 354 349 326 314 314 313 313 320 314 315 317 316 313 316 317 316 313 313 306 306 307 306 304 303 301 296 290 286 286 286 285 285 285 285 286 287 288 289 288 285 283 281 279 277 275 276 276 278 279 280 281 282 283 284 284 287 291 297 302
90 87 86 84 79 67 59 47 41 27 19 9 5 4 357 352 346 341 325 323 318 318 321 317 313 312 321 312 318 320 318 317 315 312 310 306 304 306 304 302 301 298 298 296 294 291 290 287 286 283 282 284 283 282 282 278 277 276 274 270 265 268 268 273 276 277 278 277 279 281 281 288 290 292
92 89 85 82 72 58 50 40 32 20 9 1 1 353 347 342 341 340 334 326 324 320 316 314 316 321 321 316 319 322 318 314 314 313 312 310 309 305 303 302 302 305 302 300 295 294 289 287 284 282 282 281 280 280 277 276 273 273 271 264 261 258 263 265 269 274 275 276 277 277 277 278 282 286
88 86 85 77 64 49 44 30 23 17 3 359 353 347 348 342 342 334 329 327 318 316 312 318 318 321 320 319 317 318 319 319 317 313 311 310 308 306 306 306 313 310 310 305 298 291 289 287 285 284 280 277 276 274 273 272 271 270 268 265 259 258 260 263 264 265 269 271 271 273 273 270 272 272
88 85 81 75 62 47 34 25 18 10 0 354 350 350 349 345 340 331 329 323 318 312 310 311 314 314 315 316 315 323 325 323 317 316 314 314 311 311 314 311 314 315 307 306 302 297 295 290 286 283 280 277 275 273 271 270 270 269 267 264 259 254 254 260 262 266 268 267 268 267 267 267 264 264
92 84 78 72 60 46 29 16 9 4 358 353 351 353 347 344 336 332 328 323 317 310 307 313 316 324 325 322 322 326 327 324 321 321 320 316 316 320 322 318 316 314 316 314 309 304 297 297 295 291 287 282 279 275 272 271 269 270 268 265 261 255 252 254 259 262 264 264 265 265 265 265 263 261
102 85 76 69 58 42 27 11 8 3 358 354 351 353 346 341 338 334 331 325 320 317 316 315 315 319 323 323 324 330 328 321 322 323 324 320 326 325 322 319 317 316 314 309 304 298 296 293 293 289 284 278 273 268 267 267 267 266 266 264 260 254 249 249 254 259 262 262 262 262 260 260 259 254
122 98 78 66 54 39 25 12 11 10 356 351 349 355 346 343 339 335 331 328 325 324 323 321 326 326 323 328 327 325 328 329 329 332 323 322 326 326 323 317 319 320 315 316 314 308 303 303 300 294 291 286 279 272 269 268 265 259 260 259 257 253 248 246 247 254 256 256 256 257 257 256 250 247
162 137 90 57 42 35 16 10 14 14 8 351 349 350 345 342 340 334 332 329 329 327 324 325 328 325 329 332 332 334 335 335 330 324 324 320 321 323 319 320 318 316 320 317 314 310 313 312 310 307 302 298 294 288 282 281 273 262 256 255 255 252 249 245 244 249 252 253 252 253 255 254 255 254
182 161 127 72 47 15 335 331 15 356 357 0 355 341 341 341 338 335 332 331 333 329 327 330 329 330 333 333 334 328 328 327 324 323 324 325 325 321 318 317 325 327 325 323 320 319 317 315 311 306 302 301 298 294 291 285 284 283 283 276 267 260 251 244 245 246 250 251 251 252 253 255 256 254
182 187 171 41 359 337 346 1 6 338 359 351 347 339 329 324 329 334 331 330 331 330 327 324 327 329 327 331 328 326 329 328 328 323 321 319 319 328 330 326 327 334 329 324 320 316 316 318 312 309 305 304 299 296 289 290 287 280 274 267 260 255 252 248 242 242 247 248 248 249 250 253 254 254
180 172 153 357 330 2 11 339 347 345 349 347 344 335 329 320 311 293 309 323 328 330 325 322 326 325 330 325 326 330 331 329 324 322 322 319 325 327 327 327 324 324 328 323 318 312 316 315 311 307 305 302 299 296 296 293 279 271 267 262 260 255 253 248 243 241 244 246 243 242 244 247 250 249
166 143 112 336 335 30 11 340 353 342 342 344 330 307 300 301 319 323 308 274 291 317 313 318 316 324 324 322 325 325 322 320 317 322 321 321 325 325 323 321 321 320 323 318 312 312 313 315 314 308 304 306 303 298 291 287 286 280 271 264 258 256 253 248 244 241 243 245 242 239 239 243 246 245
148 149 134 336 347 360 357 9 353 342 340 342 342 342 340 337 332 325 320 321 312 310 314 313 311 311 317 312 314 315 318 320 322 322 319 318 323 325 322 318 313 312 320 316 316 311 319 322 316 308 306 306 301 298 293 286 280 275 272 266 260 256 253 248 243 239 240 243 242 238 237 239 242 242
134 140 138 316 327 341 358 31 0 337 339 337 335 332 336 334 330 325 336 341 333 326 315 312 305 305 307 309 309 311 312 314 310 311 309 309 318 320 319 314 311 314 321 323 322 314 323 323 315 307 307 306 301 296 294 286 273 268 266 264 258 253 249 247 242 238 238 241 241 237 235 234 238 238
132 146 218 292 320 346 343 59 6 347 327 327 330 332 332 330 327 326 334 299 297 301 309 310 308 306 300 297 299 300 304 308 310 311 306 309 321 328 325 322 324 324 332 332 330 323 321 319 312 309 305 303 298 295 293 292 287 274 264 260 256 250 246 244 240 236 237 240 241 238 233 231 234 234
139 168 201 280 338 328 7 44 347 355 328 325 330 333 330 328 326 338 339 326 308 302 300 294 288 287 285 289 293 296 299 301 309 315 322 330 333 334 329 328 331 333 332 335 341 323 318 321 318 311 306 304 298 296 294 293 288 283 274 264 255 249 247 243 237 234 235 238 239 236 230 229 231 229
154 130 281 306 313 339 350 12 329 0 325 325 329 330 332 328 336 342 341 333 330 317 303 294 294 290 289 290 287 292 303 312 319 331 331 326 335 332 329 324 325 321 327 339 338 327 323 321 321 316 309 299 302 302 303 301 296 287 269 243 240 244 243 239 235 231 233 235 237 232 227 224 224 224
165 165 182 214 318 340 337 315 327 359 324 313 319 326 322 329 334 341 334 329 325 326 322 317 315 305 297 299 311 312 305 308 319 330 325 324 339 334 328 325 327 329 337 337 338 328 325 325 320 321 316 314 311 309 309 304 297 294 291 290 274 236 227 232 230 228 228 230 230 228 222 220 213 229
166 155 165 174 178 245 281 314 334 337 342 296 310 317 323 331 331 333 323 316 318 311 310 309 306 307 311 314 318 325 327 327 331 329 327 328 329 335 325 323 324 318 315 321 335 327 319 318 314 320 312 313 318 322 316 308 301 297 295 288 286 266 220 218 225 225 228 224 224 221 216 214 208 222
143 126 33 1 98 2 332 328 332 323 319 297 290 295 317 321 314 306 307 308 306 312 313 315 319 327 331 334 335 335 334 333 332 329 326 329 331 330 326 323 322 317 309 316 326 323 321 320 319 320 317 314 305 305 313 313 307 304 299 292 290 283 281 239 226 216 205 216 216 214 211 210 203 217
127 30 358 336 10 335 321 323 317 314 306 306 284 292 309 301 302 302 294 305 318 324 328 332 335 339 341 342 342 337 336 335 332 329 329 330 331 332 325 321 322 322 319 320 327 326 321 319 322 324 325 327 323 319 316 317 316 320 322 310 295 285 279 282 260 248 228 195 200 204 207 203 203 206
46 358 312 303 347 315 314 310 311 302 304 284 268 304 307 300 304 291 308 316 321 329 335 339 343 343 344 342 341 340 336 332 331 327 328 326 328 325 316 315 306 306 308 316 325 324 323 316 325 331 327 325 325 330 327 325 323 323 310 305 297 279 269 266 259 261 252 226 219 169 187 188 199 200
345 318 328 335 328 308 306 302 300 300 286 274 289 295 294 302 290 299 316 328 331 330 341 345 346 343 342 338 336 337 329 324 320 322 322 324 325 330 326 325 321 312 320 329 327 328 331 333 331 332 327 326 333 336 332 326 321 321 320 316 299 278 263 249 246 237 236 232 225 184 197 189 191 196
301 345 310 292 287 296 299 292 286 268 253 240 257 276 293 283 310 325 326 327 331 338 343 345 340 339 338 331 324 317 313 308 314 328 326 323 324 329 328 313 298 318 332 344 337 332 334 333 328 324 329 330 340 340 336 330 327 333 333 325 324 316 290 261 244 240 230 210 216 197 195 198 190 195
297 281 280 276 270 264 261 280 285 300 308 313 294 276 261 304 327 327 331 330 333 337 338 339 337 336 331 327 321 315 318 326 336 336 332 330 338 340 339 336 334 343 352 349 350 339 338 339 337 333 325 328 346 351 346 343 347 340 343 346 328 308 350 305 232 220 217 204 197 180 191 195 192 186
233 235 246 286 304 283 284 266 263 262 273 265 261 300 322 328 322 328 328 330 317 321 331 329 333 332 330 325 330 337 334 337 339 338 331 334 336 340 344 340 336 337 345 351 352 355 352 341 337 341 339 331 342 1 340 336 354 352 349 344 348 10 328 331 324 222 180 174 167 166 186 190 187 184
255 280 249 230 230 234 248 252 278 297 303 299 297 315 325 325 323 303 270 254 293 327 329 327 331 336 338 339 339 336 338 339 337 338 338 338 336 340 345 346 348 356 349 343 347 355 355 350 349 342 332 331 335 343 343 2 8 354 343 347 345 342 356 0 351 88 156 153 146 154 157 163 162 177
263 251 261 282 289 296 313 309 316 321 324 329 324 309 316 333 332 337 347 343 339 334 330 333 332 335 338 338 342 339 340 340 336 340 339 336 339 340 350 352 347 355 355 348 341 345 350 350 346 340 324 322 308 342 4 8 4 354 355 351 347 355 356 5 5 355 134 137 124 122 122 128 141 168
276 272 279 285 291 300 303 313 312 314 320 321 326 327 323 315 332 335 333 338 338 329 319 323 330 334 333 338 341 342 341 337 334 338 338 339 343 347 354 354 352 355 356 351 355 353 346 346 349 345 333 206 231 349 22 12 6 -0 354 354 4 360 352 355 11 16 22 50 112 102 86 68 46 45
242 262 271 279 286 284 288 292 301 305 303 308 311 319 321 315 321 324 331 339 331 321 319 322 327 330 336 337 338 337 338 333 330 342 342 342 347 350 353 354 350 350 352 358 360 359 357 357 357 359 4 11 27 206 55 33 14 4 348 6 359 355 350 358 10 18 30 30 36 72 68 52 38 17
253 252 262 272 281 291 291 289 293 293 295 299 302 307 308 315 317 319 327 333 319 315 318 323 323 330 331 333 332 330 331 328 336 342 339 344 347 346 350 349 345 352 355 357 358 2 1 1 1 359 357 1 5 9 10 33 35 13 8 359 357 354 350 347 3 13 30 38 34 40 46 42 32 21
254 253 257 266 275 278 278 287 292 298 295 292 296 295 298 301 306 311 319 301 296 304 313 310 318 327 327 329 329 332 335 337 338 338 341 344 345 346 347 347 348 354 357 359 360 7 6 3 0 360 359 0 7 2 357 353 26 33 17 6 0 7 354 348 4 20 25 32 39 44 50 52 32 21
248 254 258 266 271 275 278 279 278 279 286 291 287 291 288 290 297 296 295 295 310 315 316 319 323 324 329 331 333 335 335 339 341 344 345 345 346 346 347 346 345 355 358 360 359 3 7 8 4 4 3 3 358 358 349 352 9 21 25 21 13 2 3 12 9 13 5 12 29 29 28 40 30 12
243 254 253 262 267 267 272 275 277 278 285 287 284 284 290 295 297 300 300 304 308 309 314 315 321 326 319 327 332 330 330 336 341 346 346 346 346 345 344 342 343 350 353 359 358 3 2 10 9 4 7 6 2 355 348 345 8 9 26 30 24 19 19 9 4 12 15 10 3 29 51 66 56 20
234 243 256 260 263 266 266 269 267 268 273 276 280 281 286 284 289 293 295 296 301 306 303 303 306 311 318 326 328 329 331 338 340 343 346 341 340 339 345 336 343 350 351 -0 360 4 4 4 5 6 1 10 358 347 324 321 5 14 21 31 35 35 27 17 20 12 13 7 360 14 27 26 31 13
233 238 246 242 251 256 259 262 265 268 267 272 273 274 270 273 277 279 286 294 296 293 296 299 302 300 308 313 319 324 327 333 340 343 343 339 339 339 337 335 353 354 353 0 1 4 2 1 349 318 334 5 11 5 15 19 17 13 14 19 29 35 36 35 30 23 18 8 18 21 23 34 26 16
237 243 251 249 248 252 252 259 262 261 266 267 268 273 276 275 274 270 279 266 254 249 267 276 285 295 305 311 315 322 323 326 333 336 338 337 341 339 343 353 354 348 347 356 356 357 352 356 352 0 7 6 11 22 24 19 15 10 10 14 13 24 32 35 37 37 33 26 23 26 15 13 17 29
243 251 255 254 251 252 253 254 255 255 261 263 263 268 274 277 282 272 273 275 272 271 281 286 291 295 302 310 314 314 314 323 331 329 328 332 339 342 346 349 342 338 343 346 346 346 348 355 1 3 11 16 20 26 27 24 22 19 13 15 13 15 22 30 33 36 38 38 40 43 36 24 9 29
249 249 255 258 255 251 251 246 250 249 250 256 259 264 262 273 277 275 279 284 284 285 289 292 291 290 289 297 303 303 306 322 326 321 325 331 333 335 336 336 334 335 340 353 343 350 351 357 5 3 11 12 12 17 18 17 22 16 8 9 15 17 23 24 29 36 40 39 38 42 45 51 58 64
251 252 254 256 252 252 251 246 243 244 244 248 253 257 259 263 267 274 275 271 272 271 274 274 281 283 283 285 292 301 313 311 304 312 320 329 336 337 340 338 341 338 348 348 344 348 352 357 5 6 14 12 11 13 13 19 18 12 10 8 17 21 22 24 26 29 33 40 31 35 43 47 49 48